{"data":{"norad_id":61008,"epoch":"2026-05-25T01:50:03.350688Z","epoch_age_seconds":75425,"freshness":"FRESH","line1":"1 61008U 24158U   26145.07642767 -.00001510  00000+0 -38875-4 0  9995","line2":"2 61008  53.1602  70.8445 0001265  91.5017 268.6128 15.30197937 97272","mean_motion":15.30197937,"eccentricity":0.0001265,"inclination_deg":53.1602,"raan_deg":70.8445,"arg_perigee_deg":91.5017,"mean_anomaly_deg":268.6128,"bstar":-3.8875e-5,"rev_number":9727,"period_min":94.10547257848,"perigee_km":474.3542793564,"apogee_km":476.08817898838,"semimajor_km":6853.3582291724,"source":"CELESTRAK","updated_at":"2026-05-25T13:38:19.351595Z"}}